www.pogodaiklimat.ru

Погода и климат >> Архив погоды >> Литва >> D?k?tas


ПОГОДА в D?k?tas

  • Прогноз погоды в D?k?tas
  • Монитор погоды в D?k?tas
  • Климат города

АРХИВ ПОГОДЫ в D?k?tas

Время (UTC), дата Ветер
(напр.,м/с)
 
Видим.   Явления Облачность Т
(С)
Тd
(С)
f
(%)
Тe
(С)
Тes
(С)
Комфортность P
(гПа)
Po
(гПа)
Тmin
(С)
Tmax
(С)
R
(мм)
R24
(мм)
S
(см)
03 12.11 ЮВ 5-9
{11}
14 км 10/10 300 м
[]
+3.0 +0.9 86 -2 -2 1028.9 1008.5
09 12.11 ЮВ 6-10
{12}
15 км 10/10 200 м
[]
+2.3 +0.4 87 -4 -4 1030.2 1009.8
21 12.11 Ю 4-8
{11}
6000 м дымка 10/10 200 м
[]
+3.0 +1.5 90 -2 -2 1029.2 1008.8
03 13.11 Ю 6-10
{11}
3900 м дымка 10/10 100 м
[]
+2.8 +2.1 95 -3 -3 1026.9 1006.6 0.5
06 13.11 Ю 4-8
{11}
3800 м дымка 10/10 100 м
[]
+2.9 +2.1 94 -2 -2 1026.0 1005.7 +2.6 0.5
09 13.11 Ю 5-8
{10}
4400 м дымка 10/10 100 м
[]
+3.1 +2.1 93 -2 -2 1025.1 1004.8
12 13.11 Ю 5-9
{11}
5000 м дымка 10/10 200 м
[]
+3.6 +2.4 92 -2 -2 1023.4 1003.2
15 13.11 Ю 3-7
{10}
6000 м дымка 10/10 200 м
[]
+3.7 +2.4 91 -0 -0 1022.4 1002.2
18 13.11 Ю 4-7
{9}
4800 м слабый дождь 10/10 200 м
[]
+3.8 +2.8 93 -1 -1 1020.8 1000.7 +3.8 0.4
21 13.11 Ю 2-4
{8}
5000 м слабый дождь 10/10 200 м
[]
+3.9 +3.3 96 +1 +1 1019.2 999.1 5
00 14.11 Ю 3-4
{5}
7000 м дождь 10/10 100 м
[]
+4.1 +3.7 97 0 0 1017.8 997.7 8
03 14.11 Ю 1-3
{6}
5000 м слабый дождь 10/10 100 м
[]
+4.2 +3.7 97 +3 +3 1016.8 996.8 6
06 14.11 штиль 0-2
{3}
1500 м слабый дождь 10/10 50 м
[]
+4.6 +4.3 98 +3 +3 1017.0 997.0 +3.7 12
09 14.11 СЗ 3-6
{6}
20 км слабый дождь 10/10 100 м
[]
+5.9 +5.2 95 +2 +2 1018.6 998.7 3
12 14.11 СЗ 3-5
{7}
18 км в посл. час дождь 10/10 200 м
[]
+6.3 +5.5 95 +3 +3 1020.3 1000.4 2
15 14.11 СЗ 3-6
{6}
20 км 9/9 600 м
[]
+6.2 +5.2 93 +3 +3 1022.6 1002.6 0.1
18 14.11 СЗ 2-4
{6}
16 км в посл. час дождь 8/8 200 м
[]
+5.2 +4.6 96 +2 +2 1023.8 1003.7 +6.3 2
21 14.11 С 2-4
{5}
19 км слабый ливневой дождь 10/10 200 м
[]
+6.2 +5.5 95 +4 +4 1025.3 1005.2 0.2
00 15.11 СЗ 2-4
{4}
12 км дождь 9/9 100 м
[]
+5.9 +5.2 95 +3 +3 1026.9 1006.8
03 15.11 С 2-3
{4}
19 км 9/9 1000 м
[]
+5.0 +4.3 95 +2 +2 1028.6 1008.4 0.7
06 15.11 штиль 0-2
{5}
14 км 9/9 1000 м
[]
+4.8 +4.2 96 +4 +4 1030.9 1010.6 +4.3 0.7
09 15.11 СВ 1-3
{4}
20 км 9/9 200 м
[]
+5.6 +4.2 91 +4 +4 1032.5 1012.3
12 15.11 СВ 2-3
{4}
20 км 10/10 1000 м
[]
+5.9 +3.6 85 +3 +3 1034.2 1014.0
15 15.11 В 2-3
{4}
18 км 10/10 600 м
[]
+4.5 +2.8 89 +2 +2 1035.9 1015.5
21 15.11 В 1-2
{4}
20 км 10/10 600 м
[]
+2.8 +1.1 89 +1 +1 1039.0 1018.4
03 16.11 ЮВ 2-3
{5}
10 км 10/10 100 м
[]
-0.5 -1.1 96 -4 -4 1041.7 1020.8
09 16.11 ЮВ 2-3
{4}
16 км 10/10 200 м
[]
+0.1 -0.9 93 -4 -4 1044.6 1023.7
21 16.11 штиль 0-2
{4}
20 км 10/10 300 м
[]
+0.1 -2.0 86 -1 -1 1045.6 1024.7
03 17.11 З 1-4
{4}
12 км 10/10 100 м
[]
-1.9 -2.8 94 -4 -4 1044.4 1023.4
21 17.11 З 2-4
{6}
3200 м дымка 10/10 100 м
[]
+1.2 +0.8 97 -2 -2 1033.8 1013.2

 

Местоположение метеостанции D?k?tas (Литва): широта 55.52 долгота 26.32 высота над уровнем моря 168 м.

В архиве по умолчанию представлена погода в D?k?tas за последнюю неделю. Архивные данные за месяц целиком и за предыдущие месяцы, начиная с января 2011 года, Вы можете получить, выбрав интересующий диапазон дат из раскрывающегося списка и нажав кнопку "Ввод!".


*Определитесь, кто Вы:
робот инопланетянин человек

Внимание! Время в таблицах - всемирное. Для получения местного времени необходимо прибавить поправку, которая в D?k?tas равна 2 ч.

Смотрите также архив погоды в соседних городах и на ближайших метеорологических станциях:

Погода в ?ven?ionys (Литва) (42 км)
Погода в Daugavpils (Латвия) (43 км)
Погода в Utenos (Литва) (45 км)
Погода в Лынтупах (Витебская область, Беларусь) (52 км)
Погода в Нарочи (Минская область, Беларусь) (69 км)
Погода в Шарковщине (Витебская область, Беларусь) (74 км)
Погода в Ukmerge (Литва) (103 км)
Погода в Верхнедвинске (Витебская область, Беларусь) (107 км)
Погода в Z?l?ni (Латвия) (114 км)
Погода в Докшицах (Витебская область, Беларусь) (115 км)

Пояснения к столбцам:

Ветер - указаны скорость ветра в м/с - средняя за 10 мин, порывы в срок и между сроками (в фигурных скобках) и направление, откуда дует ветер: С - северный, СВ - северо-восточный, В - восточный, ЮВ - юго-восточный, Ю - южный, ЮЗ - юго-западный, З - западный, СЗ - северо-западный.
Видимость - горизонтальная дальность видимости в метрах или километрах. При видимости от 1 до 10 км при отсутствии осадков обычно наблюдается дымка, при ухудшении видимости до 1 км и менее - туман. В сухую погоду видимость может ухудшаться дымом, пылью или мглою.
Явления - указаны атмосферные явления, наблюдавшиеся в срок или в последний час перед сроком; фигурными скобками обозначены явления, наблюдавшиеся между сроками (за 1-3 часа до срока); квадратными скобками обозначены град или гололедные отложения с указанием их диаметра в мм.
Облачность - указаны через наклонную черту общая и нижняя облачность в баллах и высота нижней границы облаков в метрах; квадратными скобками обозначены формы облаков: Ci - перистые, Cs - перисто-слоистые, Cc - перисто-кучевые, Ac - высококучевые, As - высокослоистые, Sc - слоисто-кучевые, Ns - слоисто-дождевые, Cu - кучевые, Cb - кучево-дождевые. Подробнее классификацию облаков см. в Атласе облаков (PDF).
T - Температура воздуха - температура, измеренная на высоте 2 м над землей.
Td - Температура точки росы - температура, при понижении до которой содержащийся в воздухе водяной пар достигнет насыщения.
f - Относительная влажность воздуха - влажноcть воздуха, измеренная на высоте 2 м над землей.
Te - Эффективная температура - температура, которую ощущает одетый по сезону человек в тени. Характеристика душности погоды. При расчете учитывается влияние влажности воздуха и скорости ветра на теплоощущения человека.
Tes - Эффективная температура на солнце - температура, которую ощущает человек, с поправкой на солнечный нагрев. Характеристика знойности погоды. Зависит от высоты солнца над горизонтом, облачности и скорости ветра. Ночью, в пасмурную погоду, а также при ветре 12 м/с и более поправка равна нулю.
P - Атмосферное давление - приведенное к уровню моря атмосферное давление.
Po - Атмосферное давление - измеренное на уровне метеостанции атмосферное давление.
Tmin - Минимальная температура - минимум температуры воздуха на высоте 2 м над землей.
Tmax - Максимальная температура - максимум температуры воздуха на высоте 2 м над землей.
R - Количество осадков - Количество выпавших осадков за период времени, мм. При наведении курсора мыши на число - период времени, за который выпало указанное количество осадков.
R24 - Количество осадков - Количество выпавших осадков за 24 часа, мм.
S - Снежный покров - Высота снежного покрова, см. При наведении курсора мыши на число - состояние снежного покрова и степень покрытия местности в баллах.